Weather History for KDAN - October, 2010

Change the Weather History Date:

Tuesday, October 19, 2010

  Actual Average Record
Temperature  
Mean Temperature 58 °F 58 °F  
Max Temperature 69 °F 69 °F 85 °F (1953)
Min Temperature 46 °F 48 °F 27 °F (1948)
Degree Days  
Heating Degree Days 7 7  
Month to date heating degree days 77 96  
Since 1 July heating degree days 80 124  
Cooling Degree Days 0 1  
Month to date cooling degree days 15 26  
Year to date cooling degree days 1927 1429  
Growing Degree Days 8 (Base 50)    
Moisture  
Dew Point 50 °F    
Average Humidity 77    
Maximum Humidity 93    
Minimum Humidity 61    
Precipitation  
Precipitation 0.00 in 0.13 in 1.94 in (1989)
Month to date precipitation 0.43 2.20  
Year to date precipitation 34.73 36.45  
Snow  
Snow 0.00 in - - ()
Month to date snowfall 0.0  
Since 1 July snowfall 0.0  
Since 1 September snowfall 0.0  
Snow Depth 0.00 in    
Sea Level Pressure  
Sea Level Pressure 29.89 in    
Wind  
Wind Speed 3 mph (ENE)    
Max Wind Speed 10 mph    
Max Gust Speed 14 mph    
Visibility 5 miles    
Events Fog    
T = Trace of Precipitation, MM = Missing Value Source: NWS Daily Summary

Daily Weather History Graph

Daily Weather History Graph

Search for Another Location

Airport or City:

Trip Planner

Search our weather history database for the weather conditions in past years. The results will help you decide how hot, cold, wet, or windy it might be!

Date:

Astronomy

Oct. 19, 2010 Rise Set
Actual Time 7:28 AM EDT 6:35 PM EDT
Civil Twilight 7:02 AM EDT 7:01 PM EDT
Nautical Twilight 6:32 AM EDT 7:31 PM EDT
Astronomical Twilight 6:02 AM EDT 8:01 PM EDT
Moon 4:40 PM EDT (10/19) 4:16 AM EDT (10/19)
Length of Visible Light 11h 59m
Length of Day
11h 07m
Waxing Gibbous, 89% of the Moon is Illuminated
Oct 19
Waxing Gibbous
Oct 22
Full
Oct 30
Last Quarter
Nov 6
New
Nov 13
First Quarter

Hourly Weather History & Observations

Time (EDT) Temp. Dew Point Humidity Pressure Visibility Wind Dir Wind Speed Gust Speed Precip Events Conditions
12:53 AM 54.0 °F 50.0 °F 86% 29.85 in 10.0 mi SW 3.5 mph - N/A   Clear
1:53 AM 53.1 °F 50.0 °F 89% 29.85 in 9.0 mi WSW 3.5 mph - N/A   Clear
2:53 AM 53.1 °F 48.9 °F 86% 29.83 in 9.0 mi Calm Calm - N/A   Clear
3:53 AM 50.0 °F 48.0 °F 93% 29.83 in 6.0 mi SSW 3.5 mph - N/A   Clear
4:53 AM 50.0 °F 48.0 °F 93% 29.84 in 6.0 mi Calm Calm - N/A   Clear
5:29 AM 48.2 °F 46.4 °F 93% 29.87 in 1.8 mi Calm Calm - N/A   Clear
5:37 AM 48.2 °F 46.4 °F 93% 29.87 in 3.0 mi Calm Calm - N/A   Clear
5:53 AM 48.0 °F 45.0 °F 89% 29.85 in 3.0 mi Calm Calm - N/A   Clear
6:40 AM 48.2 °F 44.6 °F 87% 29.88 in 1.5 mi Calm Calm - N/A   Clear
6:48 AM 48.2 °F 46.4 °F 93% 29.88 in 0.5 mi Calm Calm - N/A Fog Fog
6:53 AM 46.0 °F 44.1 °F 93% 29.86 in 1.5 mi Calm Calm - N/A   Clear
6:57 AM 46.4 °F 44.6 °F 93% 29.88 in 3.0 mi Calm Calm - N/A   Clear
7:02 AM 46.4 °F 44.6 °F 93% 29.89 in 1.8 mi Calm Calm - N/A   Clear
7:11 AM 46.4 °F 46.4 °F 100% 29.89 in 0.8 mi Calm Calm - N/A   Clear
7:16 AM 46.4 °F 44.6 °F 93% 29.89 in 2.5 mi Calm Calm - N/A   Clear
7:24 AM 46.4 °F 44.6 °F 93% 29.90 in 3.0 mi Calm Calm - N/A   Clear
7:34 AM 46.4 °F 44.6 °F 93% 29.90 in 1.8 mi Calm Calm - N/A   Clear
7:44 AM 48.2 °F 44.6 °F 87% 29.91 in 3.0 mi Calm Calm - N/A   Clear
7:53 AM 48.0 °F 45.0 °F 89% 29.88 in 6.0 mi Calm Calm - N/A   Clear
8:53 AM 54.0 °F 50.0 °F 86% 29.92 in 6.0 mi ENE 5.8 mph - N/A   Scattered Clouds
9:02 AM 53.6 °F 51.8 °F 94% 29.94 in 4.0 mi ENE 10.4 mph - N/A   Mostly Cloudy
9:08 AM 53.6 °F 51.8 °F 94% 29.94 in 1.5 mi ENE 10.4 mph - N/A   Mostly Cloudy
9:18 AM 53.6 °F 51.8 °F 94% 29.94 in 0.5 mi ENE 9.2 mph - N/A Fog Fog
9:53 AM 54.0 °F 52.0 °F 93% 29.93 in 0.5 mi ENE 4.6 mph - N/A Fog Fog
10:26 AM 55.4 °F 53.6 °F 94% 29.96 in 1.2 mi NE 5.8 mph - N/A   Overcast
10:45 AM 55.4 °F 53.6 °F 94% 29.96 in 2.5 mi NE 5.8 mph - N/A   Overcast
10:53 AM 55.9 °F 53.1 °F 90% 29.93 in 2.5 mi NE 5.8 mph - N/A   Overcast
11:03 AM 55.4 °F 53.6 °F 94% 29.96 in 3.0 mi NNE 6.9 mph - N/A   Overcast
11:53 AM 57.9 °F 54.0 °F 87% 29.94 in 4.0 mi Calm Calm - N/A   Overcast
12:53 PM 59.0 °F 54.0 °F 83% 29.92 in 5.0 mi ENE 4.6 mph - N/A   Haze
1:53 PM 61.0 °F 54.0 °F 78% 29.90 in 6.0 mi Calm Calm - N/A   Haze
2:10 PM 62.6 °F 53.6 °F 72% 29.91 in 7.0 mi ENE 3.5 mph - N/A   Mostly Cloudy
2:20 PM 64.4 °F 53.6 °F 68% 29.90 in 7.0 mi Calm Calm - N/A   Partly Cloudy
3:53 PM 69.1 °F 55.0 °F 61% 29.86 in 9.0 mi Calm Calm - N/A   Clear
4:53 PM 68.0 °F 55.0 °F 63% 29.85 in 9.0 mi Variable 3.5 mph - N/A   Clear
5:53 PM 66.0 °F 55.9 °F 70% 29.85 in 9.0 mi ESE 3.5 mph - N/A   Clear
6:53 PM 62.1 °F 55.9 °F 80% 29.86 in 9.0 mi ENE 5.8 mph - N/A   Scattered Clouds
7:53 PM 61.0 °F 55.0 °F 81% 29.87 in 8.0 mi East 4.6 mph - N/A   Mostly Cloudy
8:53 PM 60.1 °F 55.0 °F 83% 29.88 in 8.0 mi ENE 5.8 mph - N/A   Mostly Cloudy
9:53 PM 57.9 °F 55.0 °F 90% 29.89 in 6.0 mi NE 6.9 mph - N/A   Clear
10:53 PM 57.0 °F 54.0 °F 89% 29.90 in 6.0 mi NE 4.6 mph - N/A   Partly Cloudy
11:53 PM 55.9 °F 54.0 °F 93% 29.90 in 4.0 mi Calm Calm - N/A   Mostly Cloudy